Time,TemperatureF,DewpointF,PressureIn,WindDirection,WindDirectionDegrees,WindSpeedMPH,WindSpeedGustMPH,Humidity,HourlyPrecipIn,Conditions,Clouds,dailyrainin,SoftwareType,DateUTC
2013-06-25 00:02:00,78.6,69.6,29.88,South,180,0.0,6.0,74,0.00,,,0.00,meteohub,2013-06-25 05:02:00,
2013-06-25 00:07:00,78.3,69.6,29.88,SSW,203,2.0,6.0,75,0.00,,,0.00,meteohub,2013-06-25 05:07:00,
2013-06-25 00:12:00,78.3,69.6,29.88,South,180,3.0,6.0,75,0.00,,,0.00,meteohub,2013-06-25 05:12:00,
2013-06-25 00:17:00,78.3,69.6,29.89,SSE,158,2.0,6.0,75,0.00,,,0.00,meteohub,2013-06-25 05:17:00,
2013-06-25 00:22:00,78.1,69.4,29.89,SSW,203,2.0,4.0,75,0.00,,,0.00,meteohub,2013-06-25 05:22:00,
2013-06-25 00:27:00,77.7,69.1,29.89,SSE,158,4.0,5.0,75,0.00,,,0.00,meteohub,2013-06-25 05:27:00,
2013-06-25 00:32:00,77.9,69.3,29.89,ESE,113,3.0,5.0,75,0.00,,,0.00,meteohub,2013-06-25 05:32:00,
2013-06-25 00:37:00,77.5,69.4,29.88,NW,315,2.0,4.0,76,0.00,,,0.00,meteohub,2013-06-25 05:37:00,
2013-06-25 00:42:00,77.4,69.3,29.88,ESE,113,0.0,4.0,76,0.00,,,0.00,meteohub,2013-06-25 05:42:00,
2013-06-25 00:47:00,77.2,69.1,29.88,SSW,203,0.0,3.0,76,0.00,,,0.00,meteohub,2013-06-25 05:47:00,
2013-06-25 00:52:00,77.2,69.1,29.88,SE,135,0.0,7.0,76,0.00,,,0.00,meteohub,2013-06-25 05:52:00,
2013-06-25 00:57:00,77.2,69.4,29.88,SE,135,0.0,7.0,77,0.00,,,0.00,meteohub,2013-06-25 05:57:00,
2013-06-25 01:02:00,76.8,69.1,29.88,SE,135,0.0,7.0,77,0.00,,,0.00,meteohub,2013-06-25 06:02:00,
2013-06-25 01:07:00,76.8,69.1,29.88,East,90,0.0,0.0,77,0.00,,,0.00,meteohub,2013-06-25 06:07:00,
2013-06-25 01:12:00,76.6,68.9,29.88,East,90,0.0,0.0,77,0.00,,,0.00,meteohub,2013-06-25 06:12:00,
2013-06-25 01:17:00,76.8,69.1,29.88,South,180,0.0,0.0,77,0.00,,,0.00,meteohub,2013-06-25 06:17:00,
2013-06-25 01:22:00,76.6,68.9,29.88,WNW,293,0.0,0.0,77,0.00,,,0.00,meteohub,2013-06-25 06:22:00,
2013-06-25 01:27:00,76.5,68.7,29.88,ESE,113,0.0,0.0,77,0.00,,,0.00,meteohub,2013-06-25 06:27:00,
2013-06-25 01:32:00,76.5,68.7,29.88,South,180,0.0,0.0,77,0.00,,,0.00,meteohub,2013-06-25 06:32:00,
2013-06-25 01:37:00,76.1,68.7,29.89,WSW,248,0.0,0.0,78,0.00,,,0.00,meteohub,2013-06-25 06:37:00,
2013-06-25 01:42:00,75.9,68.5,29.89,West,270,0.0,0.0,78,0.00,,,0.00,meteohub,2013-06-25 06:42:00,
2013-06-25 01:47:00,75.6,68.2,29.89,ESE,113,0.0,0.0,78,0.00,,,0.00,meteohub,2013-06-25 06:47:00,
2013-06-25 01:52:00,75.4,68.0,29.89,ESE,113,0.0,0.0,78,0.00,,,0.00,meteohub,2013-06-25 06:52:00,
2013-06-25 01:57:00,74.8,67.8,29.91,ESE,113,0.0,0.0,79,0.00,,,0.00,meteohub,2013-06-25 06:57:00,
2013-06-25 02:02:00,74.7,67.6,29.91,ESE,113,0.0,0.0,79,0.00,,,0.00,meteohub,2013-06-25 07:02:00,
2013-06-25 02:07:00,74.5,67.8,29.91,ESE,113,0.0,0.0,80,0.00,,,0.00,meteohub,2013-06-25 07:07:00,
2013-06-25 02:12:00,74.1,67.6,29.91,ESE,113,0.0,0.0,80,0.00,,,0.00,meteohub,2013-06-25 07:12:00,
2013-06-25 02:17:00,74.1,67.6,29.90,ESE,113,0.0,0.0,80,0.00,,,0.00,meteohub,2013-06-25 07:17:00,
2013-06-25 02:22:00,74.1,68.0,29.90,ESE,113,0.0,0.0,81,0.00,,,0.00,meteohub,2013-06-25 07:22:00,
2013-06-25 02:27:00,73.9,67.8,29.90,ESE,113,0.0,0.0,81,0.00,,,0.00,meteohub,2013-06-25 07:27:00,
2013-06-25 02:32:00,73.9,67.8,29.90,ESE,113,0.0,0.0,81,0.00,,,0.00,meteohub,2013-06-25 07:32:00,
2013-06-25 02:37:00,73.9,67.8,29.89,ESE,113,0.0,0.0,81,0.00,,,0.00,meteohub,2013-06-25 07:37:00,
2013-06-25 02:42:00,73.8,67.6,29.89,ESE,113,0.0,0.0,81,0.00,,,0.00,meteohub,2013-06-25 07:42:00,
2013-06-25 02:47:00,73.8,67.6,29.89,ESE,113,0.0,0.0,81,0.00,,,0.00,meteohub,2013-06-25 07:47:00,
2013-06-25 02:52:00,73.6,67.5,29.89,ESE,113,0.0,0.0,81,0.00,,,0.00,meteohub,2013-06-25 07:52:00,
2013-06-25 02:57:00,73.6,67.8,29.89,ESE,113,0.0,0.0,82,0.00,,,0.00,meteohub,2013-06-25 07:57:00,
2013-06-25 03:02:00,73.6,67.8,29.89,ESE,113,0.0,0.0,82,0.00,,,0.00,meteohub,2013-06-25 08:02:00,
2013-06-25 03:07:00,73.6,67.8,29.89,ESE,113,0.0,0.0,82,0.00,,,0.00,meteohub,2013-06-25 08:07:00,
2013-06-25 03:12:00,73.6,67.8,29.89,ESE,113,0.0,0.0,82,0.00,,,0.00,meteohub,2013-06-25 08:12:00,
2013-06-25 03:17:00,73.6,67.8,29.89,SE,135,0.0,0.0,82,0.00,,,0.00,meteohub,2013-06-25 08:17:00,
2013-06-25 03:22:00,73.6,67.8,29.89,ESE,113,0.0,0.0,82,0.00,,,0.00,meteohub,2013-06-25 08:22:00,
2013-06-25 03:27:00,73.6,67.8,29.89,ESE,113,0.0,0.0,82,0.00,,,0.00,meteohub,2013-06-25 08:27:00,
2013-06-25 03:32:00,73.6,67.8,29.89,SSE,158,0.0,0.0,82,0.00,,,0.00,meteohub,2013-06-25 08:32:00,
2013-06-25 03:37:00,73.6,67.8,29.89,WSW,248,0.0,0.0,82,0.00,,,0.00,meteohub,2013-06-25 08:37:00,
2013-06-25 03:42:00,73.4,67.6,29.89,ESE,113,0.0,0.0,82,0.00,,,0.00,meteohub,2013-06-25 08:42:00,
2013-06-25 03:47:00,73.4,68.0,29.89,SE,135,0.0,0.0,83,0.00,,,0.00,meteohub,2013-06-25 08:47:00,
2013-06-25 03:52:00,73.6,68.2,29.89,SE,135,0.0,0.0,83,0.00,,,0.00,meteohub,2013-06-25 08:52:00,
2013-06-25 03:57:00,73.6,68.2,29.88,ESE,113,0.0,0.0,83,0.00,,,0.00,meteohub,2013-06-25 08:57:00,
2013-06-25 04:02:00,73.4,68.0,29.88,SE,135,0.0,0.0,83,0.00,,,0.00,meteohub,2013-06-25 09:02:00,
2013-06-25 04:07:00,73.6,68.2,29.88,SE,135,0.0,0.0,83,0.00,,,0.00,meteohub,2013-06-25 09:07:00,
2013-06-25 04:12:00,73.4,68.0,29.88,East,90,0.0,0.0,83,0.00,,,0.00,meteohub,2013-06-25 09:12:00,
2013-06-25 04:17:00,73.4,68.0,29.88,SE,135,0.0,0.0,83,0.00,,,0.00,meteohub,2013-06-25 09:17:00,
2013-06-25 04:22:00,73.6,68.2,29.88,ESE,113,0.0,0.0,83,0.00,,,0.00,meteohub,2013-06-25 09:22:00,
2013-06-25 04:27:00,73.6,68.2,29.88,ENE,68,0.0,0.0,83,0.00,,,0.00,meteohub,2013-06-25 09:27:00,
2013-06-25 04:32:00,73.6,68.2,29.88,SW,225,0.0,0.0,83,0.00,,,0.00,meteohub,2013-06-25 09:32:00,
2013-06-25 04:37:00,73.8,68.4,29.87,WNW,293,0.0,0.0,83,0.00,,,0.00,meteohub,2013-06-25 09:37:00,
2013-06-25 04:42:00,73.8,68.4,29.87,ESE,113,0.0,0.0,83,0.00,,,0.00,meteohub,2013-06-25 09:42:00,
2013-06-25 04:47:00,73.8,68.4,29.87,ESE,113,0.0,0.0,83,0.00,,,0.00,meteohub,2013-06-25 09:47:00,
2013-06-25 04:52:00,73.8,68.4,29.87,East,90,0.0,0.0,83,0.00,,,0.00,meteohub,2013-06-25 09:52:00,
2013-06-25 04:57:00,73.8,68.4,29.89,ESE,113,0.0,0.0,83,0.00,,,0.00,meteohub,2013-06-25 09:57:00,
2013-06-25 05:03:00,73.8,68.4,29.89,SE,135,0.0,1.0,83,0.00,,,0.00,meteohub,2013-06-25 10:03:00,
2013-06-25 05:08:00,73.6,68.2,29.89,SE,135,0.0,1.0,83,0.00,,,0.00,meteohub,2013-06-25 10:08:00,
2013-06-25 05:13:00,73.6,68.2,29.89,ESE,113,0.0,1.0,83,0.00,,,0.00,meteohub,2013-06-25 10:13:00,
2013-06-25 05:18:00,73.6,68.2,29.87,SSE,158,0.0,0.0,83,0.00,,,0.00,meteohub,2013-06-25 10:18:00,
2013-06-25 05:23:00,73.4,68.0,29.87,ESE,113,0.0,0.0,83,0.00,,,0.00,meteohub,2013-06-25 10:23:00,
2013-06-25 05:28:00,73.6,68.2,29.87,ESE,113,0.0,0.0,83,0.00,,,0.00,meteohub,2013-06-25 10:28:00,
2013-06-25 05:33:00,73.6,68.4,29.87,ESE,113,0.0,0.0,84,0.00,,,0.00,meteohub,2013-06-25 10:33:00,
2013-06-25 05:38:00,73.4,68.2,29.87,ENE,68,0.0,0.0,84,0.00,,,0.00,meteohub,2013-06-25 10:38:00,
2013-06-25 05:43:00,73.6,68.4,29.87,ENE,68,0.0,0.0,84,0.00,,,0.00,meteohub,2013-06-25 10:43:00,
2013-06-25 05:48:00,73.4,68.2,29.87,SE,135,0.0,0.0,84,0.00,,,0.00,meteohub,2013-06-25 10:48:00,
2013-06-25 05:53:00,73.6,68.4,29.87,ESE,113,0.0,1.0,84,0.00,,,0.00,meteohub,2013-06-25 10:53:00,
2013-06-25 05:58:00,73.4,68.2,29.88,South,180,0.0,3.0,84,0.00,,,0.00,meteohub,2013-06-25 10:58:00,
2013-06-25 06:03:00,73.4,68.2,29.88,SE,135,0.0,3.0,84,0.00,,,0.00,meteohub,2013-06-25 11:03:00,
2013-06-25 06:08:00,73.4,68.2,29.88,ESE,113,0.0,3.0,84,0.00,,,0.00,meteohub,2013-06-25 11:08:00,
2013-06-25 06:13:00,73.4,68.2,29.88,East,90,0.0,1.0,84,0.00,,,0.00,meteohub,2013-06-25 11:13:00,
2013-06-25 06:18:00,73.6,68.4,29.87,SE,135,1.0,1.0,84,0.00,,,0.00,meteohub,2013-06-25 11:18:00,
2013-06-25 06:23:00,73.6,68.7,29.87,SE,135,0.0,1.0,85,0.00,,,0.00,meteohub,2013-06-25 11:23:00,
2013-06-25 06:28:00,73.6,68.7,29.87,SW,225,2.0,2.0,85,0.00,,,0.00,meteohub,2013-06-25 11:28:00,
2013-06-25 06:33:00,73.8,68.9,29.87,ESE,113,0.0,4.0,85,0.00,,,0.00,meteohub,2013-06-25 11:33:00,
2013-06-25 06:38:00,73.8,68.9,29.89,SSE,158,0.0,4.0,85,0.00,,,0.00,meteohub,2013-06-25 11:38:00,
2013-06-25 06:43:00,73.9,69.1,29.88,ESE,113,0.0,4.0,85,0.00,,,0.00,meteohub,2013-06-25 11:43:00,
2013-06-25 06:48:00,73.9,69.1,29.88,SE,135,0.0,0.0,85,0.00,,,0.00,meteohub,2013-06-25 11:48:00,
2013-06-25 06:53:00,73.9,69.1,29.88,SE,135,0.0,0.0,85,0.00,,,0.00,meteohub,2013-06-25 11:53:00,
2013-06-25 06:58:00,73.9,69.1,29.89,SSE,158,0.0,0.0,85,0.00,,,0.00,meteohub,2013-06-25 11:58:00,
2013-06-25 07:03:00,73.9,69.1,29.89,ESE,113,0.0,0.0,85,0.00,,,0.00,meteohub,2013-06-25 12:03:00,
2013-06-25 07:08:00,74.3,69.4,29.89,SE,135,0.0,0.0,85,0.00,,,0.00,meteohub,2013-06-25 12:08:00,
2013-06-25 07:14:00,74.1,69.3,29.89,East,90,0.0,0.0,85,0.00,,,0.00,meteohub,2013-06-25 12:14:00,
2013-06-25 07:15:00,74.3,69.4,29.89,SSE,158,0.0,0.0,85,0.00,,,0.00,meteohub,2013-06-25 12:15:00,
2013-06-25 07:20:00,74.3,69.4,29.89,SSE,158,0.0,0.0,85,0.00,,,0.00,meteohub,2013-06-25 12:20:00,
2013-06-25 07:25:00,74.5,69.6,29.89,SE,135,0.0,4.0,85,0.00,,,0.00,meteohub,2013-06-25 12:25:00,
2013-06-25 07:30:00,74.7,69.8,29.89,SSE,158,2.0,4.0,85,0.00,,,0.00,meteohub,2013-06-25 12:30:00,
2013-06-25 07:35:00,75.0,70.2,29.89,ESE,113,0.0,2.0,85,0.00,,,0.00,meteohub,2013-06-25 12:35:00,
2013-06-25 07:40:00,75.0,70.2,29.89,SE,135,0.0,2.0,85,0.00,,,0.00,meteohub,2013-06-25 12:40:00,
2013-06-25 07:45:00,75.4,70.5,29.89,South,180,3.0,5.0,85,0.00,,,0.00,meteohub,2013-06-25 12:45:00,
2013-06-25 07:50:00,75.6,70.3,29.89,SSE,158,5.0,5.0,84,0.00,,,0.00,meteohub,2013-06-25 12:50:00,
2013-06-25 07:55:00,75.7,70.5,29.88,SW,225,6.0,6.0,84,0.00,,,0.00,meteohub,2013-06-25 12:55:00,
2013-06-25 08:00:00,76.1,70.9,29.88,SE,135,1.0,6.0,84,0.00,,,0.00,meteohub,2013-06-25 13:00:00,
2013-06-25 08:05:00,76.5,71.2,29.88,SE,135,2.0,6.0,84,0.00,,,0.00,meteohub,2013-06-25 13:05:00,
2013-06-25 08:10:00,76.6,71.1,29.88,WSW,248,4.0,6.0,83,0.00,,,0.00,meteohub,2013-06-25 13:10:00,
2013-06-25 08:15:00,76.6,71.1,29.88,SE,135,2.0,5.0,83,0.00,,,0.00,meteohub,2013-06-25 13:15:00,
2013-06-25 08:20:00,76.8,71.2,29.88,South,180,5.0,5.0,83,0.00,,,0.00,meteohub,2013-06-25 13:20:00,
2013-06-25 08:25:00,77.2,71.6,29.88,SW,225,6.0,6.0,83,0.00,,,0.00,meteohub,2013-06-25 13:25:00,
2013-06-25 08:30:00,77.2,71.6,29.88,SSE,158,0.0,6.0,83,0.00,,,0.00,meteohub,2013-06-25 13:30:00,
2013-06-25 08:35:00,77.5,71.6,29.88,SW,225,8.0,9.0,82,0.00,,,0.00,meteohub,2013-06-25 13:35:00,
2013-06-25 08:40:00,77.7,71.8,29.88,ESE,113,2.0,9.0,82,0.00,,,0.00,meteohub,2013-06-25 13:40:00,
2013-06-25 08:45:00,77.9,72.0,29.88,SSW,203,1.0,12.0,82,0.00,,,0.00,meteohub,2013-06-25 13:45:00,
2013-06-25 08:51:00,77.7,71.8,29.88,SW,225,9.0,12.0,82,0.00,,,0.00,meteohub,2013-06-25 13:51:00,
2013-06-25 08:56:00,77.7,71.8,29.90,SW,225,4.0,12.0,82,0.00,,,0.00,meteohub,2013-06-25 13:56:00,
2013-06-25 09:01:00,77.7,71.8,29.90,SW,225,2.0,10.0,82,0.00,,,0.00,meteohub,2013-06-25 14:01:00,
2013-06-25 09:06:00,77.9,72.0,29.90,SSW,203,3.0,9.0,82,0.00,,,0.00,meteohub,2013-06-25 14:06:00,
2013-06-25 09:11:00,77.9,72.0,29.90,South,180,6.0,8.0,82,0.00,,,0.00,meteohub,2013-06-25 14:11:00,
2013-06-25 09:16:00,78.4,72.1,29.90,WSW,248,6.0,9.0,81,0.00,,,0.00,meteohub,2013-06-25 14:16:00,
2013-06-25 09:21:00,78.6,72.7,29.90,SE,135,1.0,9.0,82,0.00,,,0.00,meteohub,2013-06-25 14:21:00,
2013-06-25 09:26:00,79.2,72.9,29.89,South,180,6.0,9.0,81,0.00,,,0.00,meteohub,2013-06-25 14:26:00,
2013-06-25 09:31:00,79.5,72.9,29.89,SSW,203,7.0,7.0,80,0.00,,,0.00,meteohub,2013-06-25 14:31:00,
2013-06-25 09:36:00,79.5,73.2,29.88,WSW,248,3.0,7.0,81,0.00,,,0.00,meteohub,2013-06-25 14:36:00,
2013-06-25 09:41:00,79.7,73.0,29.88,SW,225,5.0,10.0,80,0.00,,,0.00,meteohub,2013-06-25 14:41:00,
2013-06-25 09:46:00,80.1,73.4,29.88,WSW,248,8.0,10.0,80,0.00,,,0.00,meteohub,2013-06-25 14:46:00,
2013-06-25 09:51:00,80.1,73.4,29.88,South,180,5.0,10.0,80,0.00,,,0.00,meteohub,2013-06-25 14:51:00,
2013-06-25 09:56:00,80.2,73.0,29.88,SSE,158,3.0,8.0,79,0.00,,,0.00,meteohub,2013-06-25 14:56:00,
2013-06-25 10:01:00,80.4,73.2,29.88,ENE,68,1.0,8.0,79,0.00,,,0.00,meteohub,2013-06-25 15:01:00,
2013-06-25 10:06:00,80.6,73.4,29.88,SW,225,3.0,7.0,79,0.00,,,0.00,meteohub,2013-06-25 15:06:00,
2013-06-25 10:11:00,80.6,73.4,29.88,WSW,248,3.0,8.0,79,0.00,,,0.00,meteohub,2013-06-25 15:11:00,
2013-06-25 10:16:00,80.8,73.2,29.88,South,180,5.0,10.0,78,0.00,,,0.00,meteohub,2013-06-25 15:16:00,
2013-06-25 10:21:00,81.0,73.0,29.87,South,180,9.0,10.0,77,0.00,,,0.00,meteohub,2013-06-25 15:21:00,
2013-06-25 10:26:00,81.3,73.4,29.87,South,180,10.0,11.0,77,0.00,,,0.00,meteohub,2013-06-25 15:26:00,
2013-06-25 10:31:00,81.7,73.8,29.87,South,180,4.0,11.0,77,0.00,,,0.00,meteohub,2013-06-25 15:31:00,
2013-06-25 10:36:00,81.7,73.8,29.87,SW,225,8.0,10.0,77,0.00,,,0.00,meteohub,2013-06-25 15:36:00,
2013-06-25 10:41:00,82.0,73.8,29.87,South,180,12.0,12.0,76,0.00,,,0.00,meteohub,2013-06-25 15:41:00,
2013-06-25 10:46:00,82.2,73.9,29.87,South,180,5.0,12.0,76,0.00,,,0.00,meteohub,2013-06-25 15:46:00,
2013-06-25 10:51:00,82.4,74.1,29.87,WSW,248,9.0,12.0,76,0.00,,,0.00,meteohub,2013-06-25 15:51:00,
2013-06-25 10:56:00,82.4,73.8,29.87,West,270,5.0,12.0,75,0.00,,,0.00,meteohub,2013-06-25 15:56:00,
2013-06-25 11:01:00,82.6,73.4,29.87,South,180,5.0,11.0,74,0.00,,,0.00,meteohub,2013-06-25 16:01:00,
2013-06-25 11:06:00,82.9,74.1,29.87,South,180,4.0,11.0,75,0.00,,,0.00,meteohub,2013-06-25 16:06:00,
2013-06-25 11:11:00,83.1,73.9,29.87,South,180,7.0,11.0,74,0.00,,,0.00,meteohub,2013-06-25 16:11:00,
2013-06-25 11:16:00,83.3,74.1,29.88,SW,225,6.0,7.0,74,0.00,,,0.00,meteohub,2013-06-25 16:16:00,
2013-06-25 11:21:00,83.5,73.6,29.88,West,270,7.0,10.0,72,0.00,,,0.00,meteohub,2013-06-25 16:21:00,
2013-06-25 11:26:00,83.7,73.6,29.88,South,180,9.0,10.0,72,0.00,,,0.00,meteohub,2013-06-25 16:26:00,
2013-06-25 11:31:00,83.8,73.8,29.88,South,180,10.0,10.0,72,0.00,,,0.00,meteohub,2013-06-25 16:31:00,
2013-06-25 11:36:00,83.8,73.0,29.89,South,180,13.0,13.0,70,0.00,,,0.00,meteohub,2013-06-25 16:36:00,
2013-06-25 11:41:00,84.0,73.2,29.89,SW,225,15.0,15.0,70,0.00,,,0.00,meteohub,2013-06-25 16:41:00,
2013-06-25 11:46:00,84.4,73.6,29.89,South,180,5.0,15.0,70,0.00,,,0.00,meteohub,2013-06-25 16:46:00,
2013-06-25 11:51:00,84.2,73.4,29.89,South,180,6.0,15.0,70,0.00,,,0.00,meteohub,2013-06-25 16:51:00,
2013-06-25 11:56:00,84.6,73.8,29.91,SSE,158,6.0,15.0,70,0.00,,,0.00,meteohub,2013-06-25 16:56:00,
2013-06-25 12:01:00,84.7,73.4,29.91,SW,225,6.0,12.0,69,0.00,,,0.00,meteohub,2013-06-25 17:01:00,
2013-06-25 12:06:00,85.1,73.8,29.91,SW,225,6.0,11.0,69,0.00,,,0.00,meteohub,2013-06-25 17:06:00,
2013-06-25 12:11:00,85.1,72.9,29.91,South,180,7.0,11.0,67,0.00,,,0.00,meteohub,2013-06-25 17:11:00,
2013-06-25 12:16:00,85.3,73.6,29.92,SW,225,6.0,16.0,68,0.00,,,0.00,meteohub,2013-06-25 17:16:00,
2013-06-25 12:21:00,85.1,72.5,29.92,South,180,11.0,16.0,66,0.00,,,0.00,meteohub,2013-06-25 17:21:00,
2013-06-25 12:26:00,85.3,72.7,29.92,SW,225,6.0,11.0,66,0.00,,,0.00,meteohub,2013-06-25 17:26:00,
2013-06-25 12:31:00,85.5,72.9,29.92,WSW,248,10.0,11.0,66,0.00,,,0.00,meteohub,2013-06-25 17:31:00,
2013-06-25 12:36:00,85.8,73.2,29.91,SW,225,10.0,11.0,66,0.00,,,0.00,meteohub,2013-06-25 17:36:00,
2013-06-25 12:41:00,85.8,73.2,29.91,SW,225,11.0,11.0,66,0.00,,,0.00,meteohub,2013-06-25 17:41:00,
2013-06-25 12:46:00,85.8,73.2,29.91,West,270,7.0,11.0,66,0.00,,,0.00,meteohub,2013-06-25 17:46:00,
2013-06-25 12:51:00,86.0,72.9,29.91,SW,225,3.0,11.0,65,0.00,,,0.00,meteohub,2013-06-25 17:51:00,
2013-06-25 12:56:00,86.0,72.9,29.91,ESE,113,3.0,14.0,65,0.00,,,0.00,meteohub,2013-06-25 17:56:00,
2013-06-25 13:01:00,86.2,71.1,29.91,South,180,9.0,14.0,61,0.00,,,0.00,meteohub,2013-06-25 18:01:00,
2013-06-25 13:06:00,86.2,72.1,29.91,South,180,8.0,14.0,63,0.00,,,0.00,meteohub,2013-06-25 18:06:00,
2013-06-25 13:11:00,86.0,71.4,29.91,WSW,248,5.0,9.0,62,0.00,,,0.00,meteohub,2013-06-25 18:11:00,
2013-06-25 13:16:00,86.0,72.0,29.91,SW,225,8.0,9.0,63,0.00,,,0.00,meteohub,2013-06-25 18:16:00,
2013-06-25 13:21:00,86.2,72.1,29.91,SSW,203,7.0,9.0,63,0.00,,,0.00,meteohub,2013-06-25 18:21:00,
2013-06-25 13:26:00,86.2,72.1,29.91,SW,225,2.0,9.0,63,0.00,,,0.00,meteohub,2013-06-25 18:26:00,
2013-06-25 13:31:00,86.2,73.0,29.91,NE,45,4.0,8.0,65,0.00,,,0.00,meteohub,2013-06-25 18:31:00,
2013-06-25 13:36:00,86.4,72.7,29.90,SW,225,6.0,8.0,64,0.00,,,0.00,meteohub,2013-06-25 18:36:00,
2013-06-25 13:41:00,86.7,73.0,29.90,SE,135,5.0,9.0,64,0.00,,,0.00,meteohub,2013-06-25 18:41:00,
2013-06-25 13:46:00,86.7,72.7,29.90,South,180,9.0,9.0,63,0.00,,,0.00,meteohub,2013-06-25 18:46:00,
2013-06-25 13:51:00,86.9,72.3,29.90,NNW,338,0.0,9.0,62,0.00,,,0.00,meteohub,2013-06-25 18:51:00,
2013-06-25 13:56:00,86.7,72.7,29.88,SSW,203,6.0,9.0,63,0.00,,,0.00,meteohub,2013-06-25 18:56:00,
2013-06-25 14:02:00,86.9,72.3,29.88,SSW,203,9.0,9.0,62,0.00,,,0.00,meteohub,2013-06-25 19:02:00,
2013-06-25 14:07:00,86.5,72.5,29.88,SSW,203,3.0,9.0,63,0.00,,,0.00,meteohub,2013-06-25 19:07:00,
2013-06-25 14:12:00,86.7,71.6,29.88,SE,135,3.0,9.0,61,0.00,,,0.00,meteohub,2013-06-25 19:12:00,
2013-06-25 14:17:00,86.7,71.6,29.89,SSW,203,4.0,13.0,61,0.00,,,0.00,meteohub,2013-06-25 19:17:00,
2013-06-25 14:22:00,86.7,72.1,29.89,WSW,248,3.0,13.0,62,0.00,,,0.00,meteohub,2013-06-25 19:22:00,
2013-06-25 14:27:00,86.7,72.1,29.89,South,180,8.0,13.0,62,0.00,,,0.00,meteohub,2013-06-25 19:27:00,
2013-06-25 14:32:00,86.7,71.2,29.89,SE,135,6.0,8.0,60,0.00,,,0.00,meteohub,2013-06-25 19:32:00,
2013-06-25 14:37:00,86.4,70.9,29.88,SE,135,3.0,8.0,60,0.00,,,0.00,meteohub,2013-06-25 19:37:00,
2013-06-25 14:42:00,86.2,70.7,29.88,SW,225,10.0,10.0,60,0.00,,,0.00,meteohub,2013-06-25 19:42:00,
2013-06-25 14:47:00,86.0,71.1,29.88,SSE,158,3.0,10.0,61,0.00,,,0.00,meteohub,2013-06-25 19:47:00,
2013-06-25 14:52:00,86.0,71.4,29.88,SSE,158,1.0,10.0,62,0.00,,,0.00,meteohub,2013-06-25 19:52:00,
2013-06-25 14:57:00,86.0,71.1,29.84,SE,135,1.0,10.0,61,0.00,,,0.00,meteohub,2013-06-25 19:57:00,
2013-06-25 15:02:00,86.2,71.6,29.84,SE,135,1.0,8.0,62,0.00,,,0.00,meteohub,2013-06-25 20:02:00,
2013-06-25 15:07:00,86.0,72.0,29.84,SE,135,4.0,8.0,63,0.00,,,0.00,meteohub,2013-06-25 20:07:00,
2013-06-25 15:12:00,85.8,71.8,29.84,WSW,248,5.0,5.0,63,0.00,,,0.00,meteohub,2013-06-25 20:12:00,
2013-06-25 15:17:00,85.6,71.6,29.84,SW,225,5.0,5.0,63,0.00,,,0.00,meteohub,2013-06-25 20:17:00,
2013-06-25 15:22:00,85.5,71.4,29.84,SSE,158,0.0,5.0,63,0.00,,,0.00,meteohub,2013-06-25 20:22:00,
2013-06-25 15:27:00,85.5,71.4,29.84,SSE,158,1.0,5.0,63,0.00,,,0.00,meteohub,2013-06-25 20:27:00,
2013-06-25 15:32:00,85.3,71.8,29.84,SE,135,4.0,5.0,64,0.00,,,0.00,meteohub,2013-06-25 20:32:00,
2013-06-25 15:37:00,85.5,72.3,29.83,ESE,113,2.0,4.0,65,0.00,,,0.00,meteohub,2013-06-25 20:37:00,
2013-06-25 15:42:00,85.8,72.7,29.83,WSW,248,5.0,5.0,65,0.00,,,0.00,meteohub,2013-06-25 20:42:00,
2013-06-25 15:47:00,86.2,73.0,29.83,ENE,68,1.0,5.0,65,0.00,,,0.00,meteohub,2013-06-25 20:47:00,
2013-06-25 15:52:00,86.5,73.4,29.83,ESE,113,2.0,5.0,65,0.00,,,0.00,meteohub,2013-06-25 20:52:00,
2013-06-25 15:57:00,86.9,73.2,29.82,NNW,338,2.0,5.0,64,0.00,,,0.00,meteohub,2013-06-25 20:57:00,
2013-06-25 16:02:00,87.1,72.9,29.82,ESE,113,2.0,6.0,63,0.00,,,0.00,meteohub,2013-06-25 21:02:00,
2013-06-25 16:07:00,87.4,72.9,29.82,ESE,113,2.0,6.0,62,0.00,,,0.00,meteohub,2013-06-25 21:07:00,
2013-06-25 16:12:00,87.6,72.5,29.82,SSW,203,4.0,8.0,61,0.00,,,0.00,meteohub,2013-06-25 21:12:00,
2013-06-25 16:17:00,88.0,72.3,29.81,West,270,4.0,8.0,60,0.00,,,0.00,meteohub,2013-06-25 21:17:00,
2013-06-25 16:22:00,88.0,72.9,29.81,SW,225,1.0,8.0,61,0.00,,,0.00,meteohub,2013-06-25 21:22:00,
2013-06-25 16:27:00,88.2,73.0,29.81,ESE,113,4.0,4.0,61,0.00,,,0.00,meteohub,2013-06-25 21:27:00,
2013-06-25 16:32:00,88.3,73.2,29.81,SSE,158,3.0,6.0,61,0.00,,,0.00,meteohub,2013-06-25 21:32:00,
2013-06-25 16:37:00,88.7,73.6,29.80,WSW,248,3.0,6.0,61,0.00,,,0.00,meteohub,2013-06-25 21:37:00,
2013-06-25 16:42:00,88.9,73.2,29.80,SW,225,10.0,10.0,60,0.00,,,0.00,meteohub,2013-06-25 21:42:00,
2013-06-25 16:47:00,89.1,73.4,29.80,SSE,158,10.0,10.0,60,0.00,,,0.00,meteohub,2013-06-25 21:47:00,
2013-06-25 16:52:00,89.1,72.9,29.80,ESE,113,2.0,10.0,59,0.00,,,0.00,meteohub,2013-06-25 21:52:00,
2013-06-25 16:57:00,89.2,73.0,29.78,SE,135,3.0,10.0,59,0.00,,,0.00,meteohub,2013-06-25 21:57:00,
2013-06-25 17:02:00,88.9,72.1,29.78,SW,225,11.0,11.0,58,0.00,,,0.00,meteohub,2013-06-25 22:02:00,
2013-06-25 17:07:00,88.9,71.6,29.78,South,180,6.0,13.0,57,0.00,,,0.00,meteohub,2013-06-25 22:07:00,
2013-06-25 17:12:00,89.1,71.8,29.78,South,180,7.0,19.0,57,0.00,,,0.00,meteohub,2013-06-25 22:12:00,
2013-06-25 17:17:00,89.1,72.9,29.77,South,180,5.0,19.0,59,0.00,,,0.00,meteohub,2013-06-25 22:17:00,
2013-06-25 17:22:00,89.1,72.9,29.77,ESE,113,3.0,19.0,59,0.00,,,0.00,meteohub,2013-06-25 22:22:00,
2013-06-25 17:27:00,89.1,72.3,29.77,SE,135,2.0,11.0,58,0.00,,,0.00,meteohub,2013-06-25 22:27:00,
2013-06-25 17:32:00,88.5,71.8,29.78,South,180,8.0,11.0,58,0.00,,,0.00,meteohub,2013-06-25 22:32:00,
2013-06-25 17:37:00,88.7,72.0,29.79,SE,135,5.0,11.0,58,0.00,,,0.00,meteohub,2013-06-25 22:37:00,
2013-06-25 17:42:00,88.7,72.0,29.79,SW,225,8.0,8.0,58,0.00,,,0.00,meteohub,2013-06-25 22:42:00,
2013-06-25 17:47:00,88.3,72.1,29.79,SE,135,5.0,16.0,59,0.00,,,0.00,meteohub,2013-06-25 22:47:00,
2013-06-25 17:52:00,88.5,72.9,29.79,SE,135,0.0,16.0,60,0.00,,,0.00,meteohub,2013-06-25 22:52:00,
2013-06-25 17:57:00,88.3,72.1,29.78,SE,135,3.0,12.0,59,0.00,,,0.00,meteohub,2013-06-25 22:57:00,
2013-06-25 18:02:00,88.3,71.6,29.78,SSW,203,10.0,10.0,58,0.00,,,0.00,meteohub,2013-06-25 23:02:00,
2013-06-25 18:07:00,88.2,71.6,29.78,ENE,68,8.0,10.0,58,0.00,,,0.00,meteohub,2013-06-25 23:07:00,
2013-06-25 18:12:00,88.0,71.4,29.78,SSE,158,10.0,10.0,58,0.00,,,0.00,meteohub,2013-06-25 23:12:00,
2013-06-25 18:17:00,88.0,71.4,29.76,SE,135,2.0,10.0,58,0.00,,,0.00,meteohub,2013-06-25 23:17:00,
2013-06-25 18:22:00,87.4,70.9,29.76,South,180,7.0,10.0,58,0.00,,,0.00,meteohub,2013-06-25 23:22:00,
2013-06-25 18:27:00,87.1,70.5,29.76,SSW,203,9.0,10.0,58,0.00,,,0.00,meteohub,2013-06-25 23:27:00,
2013-06-25 18:32:00,86.7,70.2,29.76,South,180,6.0,9.0,58,0.00,,,0.00,meteohub,2013-06-25 23:32:00,
2013-06-25 18:37:00,86.2,69.6,29.75,South,180,2.0,10.0,58,0.00,,,0.00,meteohub,2013-06-25 23:37:00,
2013-06-25 18:42:00,86.2,70.2,29.75,SSW,203,3.0,10.0,59,0.00,,,0.00,meteohub,2013-06-25 23:42:00,
2013-06-25 18:47:00,85.6,70.2,29.75,SSW,203,4.0,10.0,60,0.00,,,0.00,meteohub,2013-06-25 23:47:00,
2013-06-25 18:52:00,85.6,70.2,29.75,South,180,4.0,7.0,60,0.00,,,0.00,meteohub,2013-06-25 23:52:00,
2013-06-25 18:57:00,85.5,70.5,29.74,WSW,248,6.0,7.0,61,0.00,,,0.00,meteohub,2013-06-25 23:57:00,
2013-06-25 19:02:00,85.5,70.9,29.74,SW,225,5.0,7.0,62,0.00,,,0.00,meteohub,2013-06-26 00:02:00,
2013-06-25 19:07:00,84.9,70.0,29.74,SW,225,9.0,9.0,61,0.00,,,0.00,meteohub,2013-06-26 00:07:00,
2013-06-25 19:12:00,85.1,70.2,29.74,SSE,158,2.0,6.0,61,0.00,,,0.00,meteohub,2013-06-26 00:12:00,
2013-06-25 19:17:00,84.7,70.3,29.74,SW,225,5.0,9.0,62,0.00,,,0.00,meteohub,2013-06-26 00:17:00,
2013-06-25 19:22:00,84.7,70.3,29.74,SW,225,3.0,9.0,62,0.00,,,0.00,meteohub,2013-06-26 00:22:00,
2013-06-25 19:27:00,84.6,70.2,29.74,SE,135,0.0,7.0,62,0.00,,,0.00,meteohub,2013-06-26 00:27:00,
2013-06-25 19:32:00,84.4,70.0,29.74,ESE,113,2.0,7.0,62,0.00,,,0.00,meteohub,2013-06-26 00:32:00,
2013-06-25 19:37:00,84.2,70.2,29.74,SE,135,2.0,6.0,63,0.00,,,0.00,meteohub,2013-06-26 00:37:00,
2013-06-25 19:42:00,84.0,70.0,29.74,ENE,68,6.0,6.0,63,0.00,,,0.00,meteohub,2013-06-26 00:42:00,
2013-06-25 19:47:00,84.0,70.0,29.74,SW,225,5.0,6.0,63,0.00,,,0.00,meteohub,2013-06-26 00:47:00,
2013-06-25 19:52:00,84.0,70.0,29.74,South,180,1.0,7.0,63,0.00,,,0.00,meteohub,2013-06-26 00:52:00,
2013-06-25 19:57:00,84.0,70.0,29.75,SW,225,4.0,7.0,63,0.00,,,0.00,meteohub,2013-06-26 00:57:00,
2013-06-25 20:02:00,83.8,70.3,29.75,North,0,2.0,6.0,64,0.00,,,0.00,meteohub,2013-06-26 01:02:00,
2013-06-25 20:07:00,83.7,69.8,29.75,WSW,248,13.0,13.0,63,0.00,,,0.00,meteohub,2013-06-26 01:07:00,
2013-06-25 20:12:00,83.7,69.8,29.75,WSW,248,4.0,13.0,63,0.00,,,0.00,meteohub,2013-06-26 01:12:00,
2013-06-25 20:17:00,83.3,69.4,29.74,South,180,1.0,13.0,63,0.00,,,0.00,meteohub,2013-06-26 01:17:00,
2013-06-25 20:22:00,83.3,69.4,29.74,SW,225,2.0,13.0,63,0.00,,,0.00,meteohub,2013-06-26 01:22:00,
2013-06-25 20:27:00,82.9,69.1,29.74,SSW,203,5.0,8.0,63,0.00,,,0.00,meteohub,2013-06-26 01:27:00,
2013-06-25 20:28:00,82.9,69.1,29.74,SSW,203,5.0,8.0,63,0.00,,,0.00,meteohub,2013-06-26 01:28:00,
2013-06-25 20:33:00,82.9,69.4,29.74,SSE,158,2.0,8.0,64,0.00,,,0.00,meteohub,2013-06-26 01:33:00,
2013-06-25 20:38:00,82.9,69.4,29.75,ESE,113,0.0,8.0,64,0.00,,,0.00,meteohub,2013-06-26 01:38:00,
2013-06-25 20:43:00,82.6,69.1,29.75,WSW,248,2.0,8.0,64,0.00,,,0.00,meteohub,2013-06-26 01:43:00,
2013-06-25 20:48:00,82.6,69.6,29.75,South,180,5.0,8.0,65,0.00,,,0.00,meteohub,2013-06-26 01:48:00,
2013-06-25 20:53:00,82.2,69.3,29.76,ENE,68,2.0,8.0,65,0.00,,,0.00,meteohub,2013-06-26 01:53:00,
2013-06-25 20:58:00,81.9,68.9,29.75,WSW,248,2.0,8.0,65,0.00,,,0.00,meteohub,2013-06-26 01:58:00,
2013-06-25 21:03:00,81.5,69.1,29.75,SE,135,2.0,5.0,66,0.00,,,0.00,meteohub,2013-06-26 02:03:00,
2013-06-25 21:08:00,81.3,68.9,29.75,NW,315,1.0,7.0,66,0.00,,,0.00,meteohub,2013-06-26 02:08:00,
2013-06-25 21:13:00,81.1,69.1,29.75,SW,225,5.0,7.0,67,0.00,,,0.00,meteohub,2013-06-26 02:13:00,
2013-06-25 21:18:00,81.0,68.9,29.76,SW,225,4.0,8.0,67,0.00,,,0.00,meteohub,2013-06-26 02:18:00,
2013-06-25 21:23:00,81.0,68.9,29.76,South,180,3.0,8.0,67,0.00,,,0.00,meteohub,2013-06-26 02:23:00,
2013-06-25 21:28:00,80.8,69.3,29.76,South,180,4.0,5.0,68,0.00,,,0.00,meteohub,2013-06-26 02:28:00,
2013-06-25 21:33:00,80.6,69.1,29.76,South,180,3.0,5.0,68,0.00,,,0.00,meteohub,2013-06-26 02:33:00,
2013-06-25 21:38:00,80.4,68.9,29.78,SSW,203,3.0,5.0,68,0.00,,,0.00,meteohub,2013-06-26 02:38:00,
2013-06-25 21:43:00,80.4,68.9,29.78,SW,225,4.0,5.0,68,0.00,,,0.00,meteohub,2013-06-26 02:43:00,
2013-06-25 21:48:00,80.2,68.7,29.78,NW,315,5.0,9.0,68,0.00,,,0.00,meteohub,2013-06-26 02:48:00,
2013-06-25 21:53:00,80.1,68.9,29.78,SE,135,2.0,9.0,69,0.00,,,0.00,meteohub,2013-06-26 02:53:00,
2013-06-25 21:58:00,80.1,68.9,29.78,SSW,203,2.0,9.0,69,0.00,,,0.00,meteohub,2013-06-26 02:58:00,
2013-06-25 22:03:00,79.7,68.5,29.78,South,180,2.0,6.0,69,0.00,,,0.00,meteohub,2013-06-26 03:03:00,
2013-06-25 22:08:00,79.5,68.9,29.78,SW,225,0.0,6.0,70,0.00,,,0.00,meteohub,2013-06-26 03:08:00,
2013-06-25 22:13:00,79.3,68.7,29.78,South,180,2.0,6.0,70,0.00,,,0.00,meteohub,2013-06-26 03:13:00,
2013-06-25 22:18:00,79.3,69.1,29.78,West,270,0.0,2.0,71,0.00,,,0.00,meteohub,2013-06-26 03:18:00,
2013-06-25 22:23:00,79.0,68.7,29.78,South,180,3.0,3.0,71,0.00,,,0.00,meteohub,2013-06-26 03:23:00,
2013-06-25 22:28:00,79.0,68.7,29.78,ENE,68,2.0,4.0,71,0.00,,,0.00,meteohub,2013-06-26 03:28:00,
2013-06-25 22:33:00,79.0,68.7,29.78,South,180,4.0,4.0,71,0.00,,,0.00,meteohub,2013-06-26 03:33:00,
2013-06-25 22:38:00,78.8,68.5,29.79,East,90,0.0,4.0,71,0.00,,,0.00,meteohub,2013-06-26 03:38:00,
2013-06-25 22:43:00,78.6,68.4,29.79,North,0,0.0,4.0,71,0.00,,,0.00,meteohub,2013-06-26 03:43:00,
2013-06-25 22:48:00,78.6,68.9,29.79,ESE,113,0.0,4.0,72,0.00,,,0.00,meteohub,2013-06-26 03:48:00,
2013-06-25 22:53:00,78.6,68.9,29.79,SE,135,0.0,0.0,72,0.00,,,0.00,meteohub,2013-06-26 03:53:00,
2013-06-25 22:58:00,78.3,68.5,29.78,SE,135,0.0,0.0,72,0.00,,,0.00,meteohub,2013-06-26 03:58:00,
2013-06-25 23:01:00,78.3,68.5,29.78,ESE,113,0.0,0.0,72,0.00,,,0.00,meteohub,2013-06-26 04:01:00,
2013-06-25 23:02:00,78.3,68.5,29.78,ESE,113,0.0,0.0,72,0.00,,,0.00,meteohub,2013-06-26 04:02:00,
2013-06-25 23:07:00,78.1,68.4,29.78,East,90,0.0,0.0,72,0.00,,,0.00,meteohub,2013-06-26 04:07:00,
2013-06-25 23:12:00,78.3,68.5,29.78,SE,135,0.0,0.0,72,0.00,,,0.00,meteohub,2013-06-26 04:12:00,
2013-06-25 23:17:00,78.1,68.4,29.80,South,180,0.0,0.0,72,0.00,,,0.00,meteohub,2013-06-26 04:17:00,
2013-06-25 23:22:00,77.9,68.5,29.80,SE,135,0.0,0.0,73,0.00,,,0.00,meteohub,2013-06-26 04:22:00,
2013-06-25 23:27:00,77.9,68.5,29.80,ESE,113,0.0,0.0,73,0.00,,,0.00,meteohub,2013-06-26 04:27:00,
2013-06-25 23:32:00,77.7,68.4,29.80,SE,135,0.0,0.0,73,0.00,,,0.00,meteohub,2013-06-26 04:32:00,
2013-06-25 23:37:00,77.9,68.5,29.80,ESE,113,0.0,0.0,73,0.00,,,0.00,meteohub,2013-06-26 04:37:00,
2013-06-25 23:42:00,77.9,68.5,29.80,SE,135,0.0,0.0,73,0.00,,,0.00,meteohub,2013-06-26 04:42:00,
2013-06-25 23:47:00,77.5,68.2,29.80,SE,135,0.0,0.0,73,0.00,,,0.00,meteohub,2013-06-26 04:47:00,
2013-06-25 23:52:00,77.5,68.2,29.80,SE,135,0.0,0.0,73,0.00,,,0.00,meteohub,2013-06-26 04:52:00,
2013-06-25 23:57:00,77.5,68.5,29.79,SE,135,2.0,0.0,74,0.00,,,0.00,meteohub,2013-06-26 04:57:00,